Buena Vista, CO

2:18 PM MST on January 20, 2018 (GMT -0700)
Buena Vista

Weather History for KAEJ - June, 2014

Change the Weather History Date:

Sunday, June 8, 2014

  Actual Average (KLXV) Record (KLXV)
Temperature  
Mean Temperature 52 °F -  
Max Temperature 63 °F 60 °F 75 °F (1985)
Min Temperature 42 °F 33 °F 19 °F (2007)
Degree Days  
Heating Degree Days 12    
Growing Degree Days 2 (Base 50)    
Moisture  
Dew Point 37 °F    
Average Humidity 61    
Maximum Humidity 85    
Minimum Humidity 22    
Precipitation  
Precipitation 0.00 in - - ()
Sea Level Pressure  
Sea Level Pressure 30.13 in    
Wind  
Wind Speed 7 mph (NW)    
Max Wind Speed 32 mph    
Max Gust Speed 47 mph    
Visibility 10 miles    
Events Rain , Thunderstorm    
Averages and records for this station are not official NWS values.
T = Trace of Precipitation, MM = Missing Value Source: NWS Daily Summary

Daily Weather History Graph

Daily Weather History Graph

Search for Another Location

Airport or City:

Trip Planner

Search our weather history database for the weather conditions in past years. The results will help you decide how hot, cold, wet, or windy it might be!

Date:

Astronomy

Jun. 08, 2014 Rise Set
Actual Time 5:39 AM MDT 8:28 PM MDT
Civil Twilight 5:07 AM MDT 8:59 PM MDT
Nautical Twilight 4:27 AM MDT 9:39 PM MDT
Astronomical Twilight 3:42 AM MDT 10:25 PM MDT
Moon 3:51 PM MDT (6/8) 2:31 AM MDT (6/8)
Length of Visible Light 15h 52m
Length of Day
14h 48m
Waxing Gibbous, 77% of the Moon is Illuminated
Jun 8
Waxing Gibbous
Jun 12
Full
Jun 19
Last Quarter
Jun 27
New
Jul 5
First Quarter

Hourly Weather History & Observations

Time (MDT) Temp. Windchill Dew Point Humidity Pressure Visibility Wind Dir Wind Speed Gust Speed Precip Events Conditions
12:15 AM 49.3 °F - 41.0 °F 73% 30.22 in 10.0 mi ESE 3.5 mph - N/A   Clear
12:35 AM 49.3 °F - 41.0 °F 73% 30.22 in 10.0 mi East 3.5 mph - N/A   Clear
12:55 AM 46.2 °F - 39.9 °F 79% 30.21 in 10.0 mi Calm Calm - N/A   Clear
1:15 AM 43.3 °F 39.9 °F 37.8 °F 81% 30.20 in 10.0 mi WSW 5.8 mph - N/A   Clear
1:35 AM 43.7 °F 42.1 °F 38.3 °F 81% 30.19 in 10.0 mi SW 3.5 mph - N/A   Clear
1:55 AM 42.3 °F 38.6 °F 37.9 °F 85% 30.19 in 10.0 mi WSW 5.8 mph - N/A   Clear
2:15 AM 42.8 °F - 37.8 °F 82% 30.19 in 10.0 mi Calm Calm - N/A   Clear
2:55 AM 46.4 °F 43.5 °F 40.3 °F 79% 30.18 in 10.0 mi East 5.8 mph - N/A   Mostly Cloudy
3:15 AM 47.3 °F - 41.0 °F 79% 30.18 in 10.0 mi Calm Calm - N/A   Overcast
3:35 AM 47.7 °F - 40.6 °F 77% 30.18 in 10.0 mi Calm Calm - N/A   Overcast
3:55 AM 47.5 °F - 40.8 °F 78% 30.18 in 10.0 mi Calm Calm - N/A   Overcast
4:15 AM 46.0 °F 44.8 °F 38.8 °F 76% 30.18 in 10.0 mi WNW 3.5 mph - N/A   Mostly Cloudy
4:35 AM 44.4 °F - 38.1 °F 79% 30.18 in 10.0 mi Calm Calm - N/A   Scattered Clouds
4:55 AM 44.8 °F - 39.0 °F 80% 30.18 in 10.0 mi Calm Calm - N/A   Mostly Cloudy
5:15 AM 47.3 °F - 38.7 °F 72% 30.18 in 10.0 mi Calm Calm - N/A   Overcast
5:35 AM 46.8 °F - 39.2 °F 75% 30.18 in 10.0 mi Calm Calm - N/A   Overcast
5:55 AM 46.4 °F - 39.6 °F 77% 30.18 in 10.0 mi Calm Calm - N/A   Overcast
6:15 AM 46.9 °F - 39.9 °F 77% 30.18 in 10.0 mi Calm Calm - N/A   Overcast
6:35 AM 47.5 °F - 40.3 °F 76% 30.18 in 10.0 mi Calm Calm - N/A   Overcast
6:55 AM 48.4 °F - 40.6 °F 75% 30.18 in 10.0 mi Calm Calm - N/A   Overcast
7:15 AM 50.0 °F - 40.1 °F 69% 30.18 in 10.0 mi NW 4.6 mph - N/A   Overcast
7:35 AM 51.1 °F - 40.3 °F 67% 30.17 in 10.0 mi NW 4.6 mph - N/A   Overcast
7:55 AM 53.1 °F - 41.5 °F 65% 30.16 in 10.0 mi Calm Calm - N/A   Scattered Clouds
8:15 AM 54.5 °F - 41.5 °F 62% 30.15 in 10.0 mi Calm Calm - N/A   Clear
8:35 AM 55.6 °F - 42.1 °F 60% 30.15 in 10.0 mi SSE 3.5 mph - N/A   Scattered Clouds
8:55 AM 56.1 °F - 42.4 °F 60% 30.14 in 10.0 mi East 6.9 mph - N/A   Clear
9:15 AM 56.8 °F - 42.3 °F 58% 30.13 in 10.0 mi East 5.8 mph - N/A   Clear
9:55 AM 58.6 °F - 42.3 °F 55% 30.11 in 10.0 mi ESE 5.8 mph - N/A   Scattered Clouds
10:15 AM 60.4 °F - 41.7 °F 50% 30.09 in 10.0 mi ESE 6.9 mph - N/A   Scattered Clouds
10:35 AM 61.7 °F - 42.3 °F 49% 30.07 in 10.0 mi ESE 4.6 mph - N/A   Scattered Clouds
10:55 AM 61.2 °F - 41.9 °F 49% 30.07 in 10.0 mi Calm Calm - N/A Thunderstorm Unknown
11:35 AM 56.5 °F - 44.8 °F 65% 30.05 in 3.0 mi ENE 4.6 mph - N/A Rain , Thunderstorm Light Thunderstorms and Rain
11:55 AM 58.6 °F - 43.7 °F 58% 30.05 in 10.0 mi East 4.6 mph - N/A Thunderstorm Thunderstorm
12:15 PM 56.5 °F - 49.6 °F 78% 30.04 in 7.0 mi East 10.4 mph - N/A Rain , Thunderstorm Light Thunderstorms and Rain
12:35 PM 56.7 °F - 39.7 °F 53% 30.05 in 10.0 mi SSE 12.7 mph 28.8 mph N/A Thunderstorm Overcast
12:55 PM 54.9 °F - 39.2 °F 56% 30.05 in 10.0 mi SSE 3.5 mph - N/A Rain , Thunderstorm Light Thunderstorms and Rain
1:15 PM 57.2 °F - 41.0 °F 55% 30.05 in 10.0 mi South 6.9 mph - N/A   Mostly Cloudy
1:35 PM 60.3 °F - 38.7 °F 45% 30.05 in 10.0 mi SSW 5.8 mph - N/A Thunderstorm Mostly Cloudy
1:55 PM 57.0 °F - 39.0 °F 51% 30.07 in 7.0 mi SW 28.8 mph 36.8 mph N/A Rain , Thunderstorm Light Thunderstorms and Rain
2:15 PM 54.1 °F - 39.4 °F 57% 30.06 in 10.0 mi West 18.4 mph 25.3 mph N/A   Mostly Cloudy
2:35 PM 56.7 °F - 35.1 °F 44% 30.05 in 10.0 mi West 18.4 mph 25.3 mph N/A   Clear
2:55 PM 54.0 °F - 37.4 °F 54% 30.05 in 10.0 mi NW 11.5 mph 18.4 mph N/A   Clear
3:15 PM 55.9 °F - 36.5 °F 48% 30.03 in 10.0 mi North 17.3 mph 23.0 mph N/A   Clear
3:35 PM 57.6 °F - 34.2 °F 41% 30.04 in 10.0 mi North 9.2 mph 17.3 mph N/A   Mostly Cloudy
3:55 PM 58.6 °F - 32.5 °F 37% 30.04 in 10.0 mi NNW 10.4 mph 21.9 mph N/A   Scattered Clouds
4:15 PM 62.2 °F - 30.9 °F 31% 30.02 in 10.0 mi NNW 12.7 mph 19.6 mph N/A   Scattered Clouds
4:35 PM 60.6 °F - 27.0 °F 28% 30.03 in 10.0 mi WNW 17.3 mph 26.5 mph N/A   Mostly Cloudy
4:55 PM 63.3 °F - 25.0 °F 23% 30.05 in 10.0 mi NW 16.1 mph 25.3 mph N/A   Mostly Cloudy
5:15 PM 61.7 °F - 22.3 °F 22% 30.06 in 10.0 mi WNW 18.4 mph 34.5 mph N/A   Mostly Cloudy
5:35 PM 60.4 °F - 23.5 °F 24% 30.07 in 10.0 mi NNW 27.6 mph 35.7 mph N/A Thunderstorm Mostly Cloudy
5:55 PM 60.3 °F - 21.9 °F 23% 30.06 in 10.0 mi NW 18.4 mph 34.5 mph N/A   Scattered Clouds
6:15 PM 59.7 °F - 21.2 °F 23% 30.07 in 10.0 mi WNW 21.9 mph 28.8 mph N/A   Clear
6:35 PM 54.0 °F - 28.9 °F 38% 30.10 in 10.0 mi NW 29.9 mph 40.3 mph N/A Thunderstorm Clear
6:55 PM 49.5 °F - 32.7 °F 53% 30.13 in 10.0 mi NW 32.2 mph 47.2 mph N/A   Clear
7:15 PM 47.7 °F - 32.9 °F 57% 30.12 in 10.0 mi NNW 18.4 mph 35.7 mph N/A Thunderstorm Clear
7:35 PM 48.2 °F - 32.2 °F 54% 30.13 in 10.0 mi NNW 12.7 mph 21.9 mph N/A   Scattered Clouds
7:55 PM 48.7 °F - 32.9 °F 54% 30.16 in 10.0 mi WNW 27.6 mph 36.8 mph N/A   Mostly Cloudy
8:15 PM 45.5 °F 38.9 °F 35.1 °F 67% 30.17 in 10.0 mi West 15.0 mph 21.9 mph N/A   Mostly Cloudy
8:35 PM 45.7 °F 37.6 °F 35.2 °F 67% 30.19 in 10.0 mi NNW 21.9 mph 28.8 mph N/A Rain Light Rain
8:55 PM 42.3 °F 34.1 °F 35.1 °F 76% 30.19 in 10.0 mi NNW 17.3 mph 28.8 mph N/A   Mostly Cloudy
9:15 PM 42.1 °F 33.3 °F 34.9 °F 76% 30.19 in 10.0 mi NNW 19.6 mph 24.2 mph N/A   Mostly Cloudy
9:35 PM 42.3 °F 34.8 °F 34.3 °F 74% 30.19 in 10.0 mi NW 15.0 mph 21.9 mph N/A   Scattered Clouds
9:55 PM 44.2 °F 37.3 °F 34.0 °F 67% 30.20 in 10.0 mi NW 15.0 mph 24.2 mph N/A   Scattered Clouds
10:15 PM 43.2 °F 37.0 °F 34.2 °F 71% 30.19 in 10.0 mi NW 11.5 mph - N/A   Scattered Clouds
10:35 PM 43.9 °F 35.9 °F 34.0 °F 68% 30.20 in 10.0 mi NW 18.4 mph 26.5 mph N/A   Scattered Clouds
10:55 PM 42.6 °F 36.3 °F 35.1 °F 75% 30.20 in 10.0 mi NW 11.5 mph 23.0 mph N/A   Scattered Clouds
11:15 PM 43.3 °F 36.1 °F 34.3 °F 71% 30.20 in 10.0 mi WNW 15.0 mph - N/A   Mostly Cloudy
11:35 PM 44.1 °F 37.4 °F 33.6 °F 67% 30.19 in 10.0 mi NW 13.8 mph 19.6 mph N/A   Overcast
11:55 PM 44.2 °F 38.4 °F 33.3 °F 65% 30.20 in 10.0 mi WNW 11.5 mph 17.3 mph N/A   Scattered Clouds